sat.trackr.live / text

‹ back to catalog

JILIN-1 04

NORAD 43022 · 2017-074A

PAYLOAD ACTIVE UNKNOWN

§ Identity

Operator
Country
PRC
Launch date
2017-11-21
Launch site
TAISC
Launch vehicle
Mass (kg)
RCS (m²)

External: N2YO · Heavens-Above · Gunter

§ Orbital elements

Epoch: 2026-09-20T04:30:00.220320Z

Period
93.22 min
Inclination
97.4911°
Eccentricity
0.0003252
Mean motion
15.44675960 rev/d
Perigee alt
430.1 km
Apogee alt
434.5 km
Semi-major
6,810.5 km
B*
2.4191e-4
RAAN
15.5226°
Arg perigee
194.4284°
Mean anomaly
165.6871°
Rev number
48,892

§ Raw data

JILIN-1 041 43022U 17074A   26263.18750255  .00011193  00000+0  24191-3 0  99962 43022  97.4911  15.5226 0003252 194.4284 165.6871 15.44675960488921

JSON: /api/v1/satellites/43022 · /tle

For live sub-satellite position, see the globe view (requires WebGL).

§ Visibility from observer

Set your observer location to see the next 7 days of passes ≥ 10°. The values pass through the URL so the page stays shareable.

No JS? Fill the form by hand. The geolocation button needs JavaScript.

§ Radio — SatNOGS DB

ModeDescriptionDownlinkUplink
BPSK Telemetry 2.219 GHz

1 transmitter · refreshed weekly from db.satnogs.org